Hovedside
METAR-TAF:

METAR-TAF

Lufthavner :

Sandane, Norge

Sandane lufthamn

breddegrad: 61-50N, lengdegrad: 006-07E, høyde over havet: 6 m

Gjeldene værobservasjon

Denne rapporten ble laget for 32 minutter siden, klokken 13:50 UTC
Vind 4 kt fra skiftende retning
Temperatur 1°C
Luftfuktighet 80%
Trykk 988 hPa
Sikt 10 km eller mer
Få skyer i en høyde av 1800 ft
Brutte skyer i en høyde av 3500 ft
regnbyger i nærheten

METAR: ENSD 221350Z VRB04KT 9999 VCSH FEW018 BKN035 01/M02 Q0988 RMK WIND 1138FT 08010KT

Tid: 15:22 (14:22 UTC)


TAF: fraværende

Værobservasjoner og værvarsel for over 4000 flyplasser (METAR- og TAF-rapporter).

Tilgjengelige stasjoner er representert av de røde og gule prikkene på kartet.

Hold musepekeren over prikken for å se navnet på stasjonen.

Klikk så for å se værobservasjoner og -varsler.

For å forandre kartet kan du klikke på den grønne knappen med svart kryss for å zoome inn, på den grønne knappen med strek for å zoome ut, eller på de grønne pilene for å se tilstøtende kart.


METAR-TAF: